Temperature
20 20 20 20 18 16 18 18 18 18 18 18 18 18 18 17 17 17 17 17 17 17 17 17 17 17 17 17 17 17 17 17 17 17 17 17 17 17 17 17 17 17 17 17 17 17 17 17 17
20 20 20 20 17 17 18 18 18 18 18 19 18 18 17 17 17 17 17 17 17 17 17 17 17 17 17 17 17 17 17 17 17 17 17 17 17 17 17 17 17 17 17 17 17 17 17 17 17
20 20 20 16 17 17 19 18 18 18 19 19 18 17 17 16 17 17 17 17 17 17 17 17 17 17 17 17 17 17 17 17 17 17 17 17 17 17 17 17 17 17 17 17 17 17 17 17 17
20 20 19 17 18 18 18 18 18 18 19 18 18 17 17 17 17 17 17 17 17 17 17 17 17 17 17 17 17 17 17 17 17 17 17 17 17 17 17 17 17 17 16 16 17 17 17 17 17
21 20 17 17 18 18 18 18 19 18 18 18 17 17 16 17 17 17 17 17 17 17 17 17 17 17 17 17 17 17 17 17 17 17 17 17 17 17 17 17 17 16 16 16 16 16 16 16 16
20 17 16 17 18 18 18 19 19 18 18 18 17 16 16 17 17 17 17 17 17 17 17 17 17 16 16 16 16 16 16 16 17 17 17 17 17 17 16 16 16 16 16 16 16 16 16 16 16
19 16 16 17 17 18 19 19 18 17 17 18 18 16 16 16 17 17 17 17 16 17 17 16 16 16 16 16 16 16 16 16 17 17 17 17 17 16 16 16 16 16 16 16 16 16 16 16 16
20 16 17 17 18 18 19 19 19 18 18 18 18 17 16 16 17 17 16 16 16 16 16 16 16 16 16 16 16 16 16 16 16 16 16 16 16 16 16 16 16 16 16 16 16 16 16 16 16
20 16 16 17 18 18 19 19 19 18 18 18 17 17 17 17 17 16 16 16 16 16 16 16 16 16 16 16 16 16 16 16 16 16 16 16 16 16 16 16 16 16 16 16 16 16 16 16 16
19 16 18 18 18 18 19 19 18 18 17 17 17 17 17 17 17 17 16 16 16 16 16 16 16 16 16 16 16 16 16 16 16 16 16 16 16 16 16 16 16 16 16 16 16 16 15 15 15
18 17 18 18 19 19 19 19 19 18 17 17 17 17 17 17 17 17 17 17 16 16 16 16 16 16 16 16 16 16 16 16 16 16 16 16 16 16 15 15 15 15 15 15 15 15 15 15 15
18 18 18 19 19 19 19 19 18 18 18 18 18 18 17 17 17 17 17 16 16 16 16 16 16 16 16 16 16 16 16 16 16 16 15 15 15 15 15 15 15 15 15 15 15 15 15 15 15
18 18 19 19 19 19 19 18 18 17 18 18 17 17 17 17 17 16 16 16 16 16 16 16 16 16 16 16 16 16 16 16 15 15 15 15 15 15 15 15 15 15 15 15 15 15 15 15 14
18 18 18 19 19 18 18 17 17 16 17 17 17 17 17 17 17 16 16 16 16 16 16 16 16 16 16 16 16 16 15 15 15 15 15 15 15 15 15 15 15 15 15 15 15 14 14 14 14
19 18 18 18 18 18 18 17 16 17 17 17 16 17 17 17 16 16 16 16 16 16 16 16 16 16 16 16 15 15 15 15 15 15 15 15 15 15 15 15 15 15 15 14 14 14 14 14 14
18 17 17 17 18 18 18 17 16 16 16 16 16 16 16 16 16 16 16 16 16 16 16 16 16 16 15 15 15 15 15 15 15 15 15 15 15 15 15 15 15 15 14 14 14 14 14 14 14
17 16 17 17 17 17 17 16 16 16 16 16 16 16 16 16 16 16 16 16 16 16 16 16 16 16 15 15 15 15 15 15 15 15 15 15 15 15 15 15 14 14 14 14 14 14 14 13 13
17 17 17 17 17 17 16 16 15 16 16 15 16 16 16 16 16 16 16 16 16 16 15 15 15 15 15 15 15 15 15 14 14 14 14 14 14 14 14 14 14 14 14 14 13 13 13 13 13
17 17 17 17 18 17 16 15 15 16 15 15 15 16 16 16 16 16 16 16 16 15 15 15 15 15 15 15 15 14 14 14 14 14 14 14 14 14 14 14 14 14 14 13 13 13 13 13 13
17 17 17 17 17 17 15 15 15 15 15 15 15 15 16 16 16 16 16 16 15 15 15 15 15 15 15 15 14 14 14 14 14 14 14 13 13 13 13 13 13 13 13 13 13 13 13 12 12
17 17 17 17 17 16 16 15 15 15 15 15 15 16 16 16 16 16 15 15 15 15 15 15 14 14 14 14 14 14 14 14 13 13 13 13 13 13 13 13 13 13 13 13 13 12 12 12 12
17 18 17 17 16 15 16 14 14 14 14 14 15 15 15 15 15 15 15 15 15 15 15 14 14 14 14 14 14 14 14 13 13 13 13 13 13 12 12 12 12 12 12 12 12 12 12 12 12
18 17 17 16 15 15 15 14 14 14 14 14 14 15 15 15 15 15 15 15 15 15 14 14 14 14 14 14 13 13 13 13 13 13 13 12 12 12 12 12 12 12 12 12 12 12 12 11 11
17 16 15 14 14 14 15 14 14 13 14 14 14 14 15 15 15 15 15 15 15 14 14 14 14 14 14 14 13 13 13 13 13 13 12 12 12 12 12 11 11 11 11 11 11 11 11 11 11
16 15 14 15 13 14 14 14 14 14 13 13 13 14 14 14 15 15 15 14 14 14 14 14 14 14 13 13 13 13 13 12 12 12 12 12 12 12 11 11 11 11 11 11 11 11 11 11 11
16 15 14 15 14 13 14 14 14 13 13 14 14 14 14 14 14 14 14 14 14 14 14 14 13 13 13 13 13 12 12 12 12 12 12 12 11 11 11 11 11 11 11 11 10 10 10 10 10
16 14 14 13 14 14 13 13 14 13 13 13 13 13 14 14 14 14 14 14 14 14 13 13 13 13 13 13 13 12 12 12 12 12 12 11 11 11 11 11 11 10 10 10 10 10 10 10 10
15 13 12 13 14 14 14 14 13 13 13 12 12 12 13 13 13 14 14 14 14 13 13 13 13 13 13 12 12 12 12 12 11 11 11 11 11 11 11 11 11 10 10 10 10 10 10 9 9
15 14 12 11 12 13 13 13 13 13 13 12 12 13 13 13 13 13 13 13 13 13 13 13 12 12 12 12 12 12 12 11 11 11 11 11 11 11 11 11 10 10 10 10 10 9 9 9 9
15 14 12 13 13 11 12 13 13 12 12 12 12 13 13 13 13 13 13 13 13 13 12 12 12 12 12 12 12 11 11 11 11 11 11 11 11 11 10 10 10 10 10 10 9 9 9 9 9
Wind_Speed
2 4 3 4 5 6 3 2 1 2 3 2 4 5 6 4 2 2 1 1 1 1 1 2 4 5 7 7 8 8 8 9 9 9 8 9 9 9 9 9 9 9 9 9 8 8 7 7 7
2 3 4 5 5 4 2 2 2 2 3 3 5 5 6 5 3 3 1 0 1 1 1 2 4 6 7 8 8 8 8 9 9 8 8 9 9 9 9 9 10 10 9 9 9 8 8 7 8
2 3 4 5 4 3 1 1 2 4 4 3 4 5 4 3 2 1 1 1 2 2 2 2 5 7 8 9 9 9 9 9 9 8 9 9 9 10 10 10 10 9 9 9 8 8 8 8 8
3 5 5 6 5 1 1 2 3 4 4 6 4 5 4 2 1 1 2 3 3 2 2 3 6 7 8 8 9 10 10 10 9 9 9 9 9 10 10 10 9 9 9 8 8 8 8 8 8
4 5 6 4 3 2 1 2 3 4 3 4 4 4 3 4 4 5 4 3 3 3 3 5 6 7 8 9 9 10 11 10 10 9 9 8 9 9 9 9 9 9 9 8 8 8 8 8 8
5 5 5 2 2 2 1 2 3 4 3 3 4 4 2 2 4 4 4 4 4 4 5 6 6 7 8 8 9 9 10 10 10 10 10 10 9 9 8 8 8 8 8 8 8 9 9 8 8
5 5 4 2 1 2 1 2 4 4 4 2 3 4 2 1 2 4 5 5 5 5 5 6 6 6 7 8 8 8 9 9 10 10 10 11 10 9 9 8 8 7 8 8 9 9 9 9 9
5 5 4 2 2 1 0 2 2 4 3 2 3 5 3 3 3 6 6 6 5 5 5 5 6 6 6 7 7 8 9 9 9 9 10 10 11 10 10 10 9 8 8 9 9 9 9 9 9
4 5 2 2 3 1 1 3 2 3 5 3 3 2 4 7 7 7 6 5 4 4 4 4 5 6 6 6 7 8 8 9 9 8 9 9 9 9 9 10 10 9 8 9 9 9 9 9 9
5 4 3 2 3 3 2 3 3 4 4 3 4 5 6 8 8 7 5 4 2 2 2 3 3 4 5 5 6 7 6 7 8 8 8 8 8 8 8 10 11 11 10 10 10 10 10 9 8
4 4 2 1 2 3 2 2 3 6 2 3 6 8 8 7 6 5 4 3 2 2 1 1 2 3 4 4 5 5 5 6 7 7 7 7 7 7 8 7 8 9 10 9 10 10 10 9 8
4 2 2 1 2 2 3 3 3 3 2 3 7 9 8 7 6 5 4 2 2 2 1 1 2 3 3 4 4 4 4 4 5 6 6 6 5 5 5 6 7 7 7 7 7 7 8 9 9
3 2 2 3 4 3 5 4 3 2 2 6 8 7 6 5 4 3 2 2 2 2 1 1 2 2 3 4 3 4 4 4 5 6 6 6 4 3 4 5 6 7 7 6 5 6 7 7 7
2 3 3 3 3 2 4 3 3 1 4 8 8 6 4 4 3 3 2 2 2 2 2 1 2 2 4 3 3 3 4 5 6 6 6 6 5 4 4 4 5 5 6 5 5 6 5 5 6
4 4 4 2 1 1 4 4 1 2 6 7 5 4 4 3 3 3 3 3 2 2 2 1 2 3 4 3 3 4 4 5 5 5 6 6 6 5 4 4 4 4 5 6 6 6 6 5 6
4 4 1 2 1 1 4 1 2 3 6 5 4 3 3 2 3 3 2 2 2 2 2 2 3 4 4 3 4 4 4 5 5 5 5 6 6 6 5 4 3 5 5 5 4 4 5 5 5
4 1 1 2 1 2 3 2 2 4 6 5 4 3 3 2 2 1 2 2 3 3 3 2 3 4 4 4 4 4 5 5 4 5 5 5 6 6 6 4 4 5 5 4 4 4 4 4 4
3 2 2 2 1 4 3 2 2 3 5 5 4 4 3 3 3 2 2 2 3 2 3 3 4 3 4 4 4 4 4 4 5 5 4 5 5 6 6 5 5 5 4 4 4 4 4 3 3
4 3 2 3 2 4 3 2 3 3 3 4 4 4 4 4 2 1 2 2 3 2 3 3 3 3 3 3 2 2 2 2 2 3 5 5 5 5 5 4 4 4 4 3 3 3 4 4 3
3 2 2 2 1 3 1 2 2 2 3 4 5 6 6 4 1 2 2 2 3 2 2 2 2 2 3 2 2 2 2 1 1 3 4 5 4 4 4 4 3 3 3 4 4 3 2 2 3
1 3 3 2 2 3 2 4 3 2 1 2 3 4 5 6 5 3 3 2 2 2 2 2 2 2 2 3 3 3 3 3 2 2 2 4 4 4 4 4 4 3 3 3 2 3 3 2 3
2 3 4 3 3 1 1 2 5 3 3 2 3 4 5 5 4 4 4 3 3 2 2 2 2 2 2 3 4 4 3 2 1 0 1 2 3 4 4 4 4 3 3 2 2 2 2 3 2
3 1 3 3 4 2 2 1 6 3 4 4 3 4 5 4 5 5 4 4 3 2 2 2 2 3 2 3 3 3 2 1 1 1 2 2 3 3 3 3 3 3 3 2 2 2 2 2 2
3 5 6 5 4 1 2 2 4 3 4 4 3 2 2 3 3 3 3 3 2 2 2 2 3 2 2 3 3 3 3 2 2 1 1 1 1 2 2 3 3 3 3 2 2 2 3 2 2
5 5 4 4 3 3 1 2 5 4 3 2 2 2 0 2 3 2 3 3 3 2 2 2 3 2 2 3 2 2 3 3 3 2 2 1 0 0 0 2 2 2 2 3 3 3 2 2 2
1 5 5 3 3 3 1 3 4 3 3 2 1 1 1 2 2 2 3 3 3 3 3 2 2 2 2 2 2 2 2 2 2 2 2 2 2 2 1 2 2 2 2 3 3 2 1 2 2
3 2 3 5 2 1 3 4 4 4 5 5 4 2 1 1 1 1 2 3 3 3 3 3 3 2 1 2 2 2 2 2 2 2 2 1 1 1 2 2 2 2 2 3 3 2 1 1 1
4 6 4 4 3 2 4 3 3 4 3 3 2 2 1 0 1 1 1 1 3 3 2 2 2 2 2 1 1 1 1 2 2 2 2 2 2 2 3 3 3 2 2 2 2 1 1 2 1
3 4 4 4 4 4 2 4 3 3 3 3 3 2 1 1 1 1 1 1 2 2 2 2 1 1 1 1 1 1 1 1 1 1 2 2 2 3 3 3 3 2 2 2 2 1 1 1 1
3 4 5 3 2 3 3 5 2 2 3 2 2 2 1 1 1 1 1 1 1 2 2 2 2 2 1 1 1 1 1 1 1 1 1 1 2 2 3 3 3 3 2 2 2 2 1 2 1
Wind_Direction
69 84 80 59 57 55 53 353 357 61 54 43 57 80 93 82 86 117 293 111 74 72 43 88 82 79 76 74 72 74 78 79 75 74 74 76 77 79 81 80 80 83 81 76 73 73 78 82 80
89 78 58 60 79 73 21 345 45 56 117 119 67 66 71 61 58 89 22 358 77 94 77 98 92 80 76 75 73 75 78 79 76 74 75 78 78 78 80 79 77 77 74 72 71 72 76 78 77
91 58 76 69 81 121 115 56 100 70 68 69 68 56 70 68 60 114 211 129 72 59 66 104 91 81 77 76 75 76 80 81 81 78 79 78 79 79 81 80 78 75 72 69 70 74 76 76 75
81 49 56 70 77 62 135 142 130 98 55 44 80 67 59 45 117 141 115 98 83 45 63 98 93 85 79 76 73 74 76 78 81 81 78 78 78 79 82 81 78 73 71 70 69 72 73 72 73
60 72 62 57 40 1 36 98 108 83 66 49 79 86 46 3 71 99 104 93 82 53 64 92 92 88 82 77 73 73 73 71 72 74 73 75 77 78 80 78 76 73 71 70 71 70 70 71 72
56 65 80 77 18 359 23 65 88 79 82 76 84 93 56 28 78 97 93 77 69 72 69 77 88 87 83 78 72 70 72 72 70 70 68 68 71 73 73 71 75 75 70 65 65 66 69 71 71
94 84 99 115 69 27 62 92 110 108 95 98 111 95 76 42 91 106 89 73 60 59 59 52 59 72 76 75 70 67 70 70 68 67 64 65 64 64 65 65 67 67 68 66 67 68 67 68 70
113 97 81 83 106 4 48 105 101 103 102 90 93 122 157 179 114 100 85 71 64 56 51 46 45 51 53 59 66 67 66 64 63 64 61 58 56 55 57 55 56 60 64 65 67 71 68 65 66
84 80 115 175 161 188 81 101 75 72 94 70 66 115 140 132 114 100 83 65 63 61 45 45 44 41 44 50 57 58 59 58 57 54 54 51 44 44 46 50 53 58 63 64 61 65 68 63 61
80 111 185 199 169 156 104 99 124 93 77 66 66 73 107 120 121 119 121 121 111 89 57 55 48 41 45 54 50 49 51 50 52 51 50 50 46 44 46 47 51 54 56 56 56 58 59 58 55
108 142 163 99 144 136 113 83 99 120 120 183 157 143 135 128 127 135 144 150 159 157 118 87 73 60 60 55 55 49 47 48 47 45 46 52 49 43 41 41 40 43 47 49 50 52 52 55 55
108 107 127 107 97 103 115 107 91 109 190 177 155 146 143 143 150 155 161 160 134 123 142 113 92 78 71 69 60 58 53 53 49 44 48 55 50 42 39 41 37 42 44 47 49 55 55 56 57
93 98 78 83 71 78 86 84 104 53 74 102 114 118 132 140 138 131 134 128 115 122 124 116 104 104 86 76 67 64 56 56 59 57 52 60 59 48 42 43 46 45 46 48 51 54 52 51 54
118 95 80 64 65 56 98 70 80 57 107 112 122 135 145 146 143 126 117 118 122 132 140 119 108 103 95 86 80 66 61 63 63 58 53 59 62 56 54 48 42 42 47 53 57 57 57 52 54
95 84 45 29 54 78 99 48 44 149 121 122 137 152 154 157 152 160 172 164 164 158 140 138 131 103 98 94 88 77 66 68 62 56 56 60 65 63 59 56 45 35 52 62 62 56 58 56 53
71 74 30 295 106 106 109 214 253 150 137 145 152 155 162 181 181 175 163 159 155 132 123 144 127 114 109 97 88 80 71 69 63 58 56 61 66 69 65 57 41 38 57 60 62 52 61 53 49
46 104 234 291 168 130 131 227 244 151 151 165 168 174 178 197 217 189 164 162 156 148 137 116 108 120 114 98 85 76 69 65 59 56 53 58 65 70 71 60 44 49 57 55 64 56 65 63 53
201 197 224 240 209 129 146 229 249 161 167 185 186 188 192 202 226 199 161 146 128 122 119 109 102 111 108 96 82 67 57 50 52 50 49 60 64 67 71 61 49 56 63 58 62 68 57 60 50
157 158 210 247 192 141 172 240 261 188 177 201 205 200 204 217 226 164 147 129 116 107 110 113 117 119 121 114 108 93 67 38 39 43 48 60 65 70 74 66 56 59 68 69 75 83 71 52 39
128 144 235 287 138 150 157 300 283 207 203 207 209 209 205 209 197 157 143 125 131 134 136 129 137 142 140 124 121 121 116 87 62 38 42 48 63 72 81 80 71 68 76 67 63 76 83 49 39
185 184 210 210 58 61 76 337 322 296 256 237 216 205 200 199 195 181 163 159 146 155 168 159 156 141 124 105 98 85 65 48 36 28 21 22 52 72 78 86 83 74 84 89 71 75 95 93 39
250 241 189 159 119 319 97 293 306 301 310 288 249 222 211 204 190 179 172 166 173 194 159 136 135 126 120 121 121 128 132 144 197 202 22 17 46 70 80 88 89 83 80 89 83 80 91 111 92
212 97 123 120 127 57 28 122 300 340 317 296 272 235 214 198 187 185 182 182 177 163 150 148 133 125 125 125 131 126 123 140 115 76 68 40 36 53 67 83 86 85 81 89 87 78 77 94 115
121 72 62 55 73 27 277 167 288 278 265 285 293 279 215 190 181 180 165 147 144 141 144 145 140 142 142 134 134 138 138 134 123 117 115 59 31 38 57 79 80 83 85 93 98 94 88 85 92
72 82 36 12 19 263 251 172 251 282 289 260 246 276 202 160 153 148 143 147 152 152 156 154 148 156 158 148 155 159 155 152 161 176 174 163 115 70 225 102 94 91 94 93 89 94 93 96 100
138 134 151 187 223 277 334 227 255 321 339 0 72 99 97 112 135 154 164 167 168 165 161 159 161 170 166 167 181 175 163 155 174 181 177 185 196 205 158 128 117 102 96 95 93 93 100 90 93
118 135 160 136 137 288 286 293 313 12 22 28 31 42 48 118 145 150 146 156 156 163 177 179 173 166 167 176 179 181 178 174 183 182 167 180 191 164 136 134 129 114 106 105 105 98 94 96 91
110 135 92 110 140 269 297 288 275 309 322 346 347 330 303 9 40 94 103 156 174 177 172 165 171 180 190 177 184 192 196 200 193 172 178 188 183 149 142 145 137 126 113 110 109 99 90 96 61
74 82 93 106 138 155 259 275 226 228 238 250 266 273 282 237 225 202 190 196 169 148 155 161 162 166 187 191 182 156 192 188 158 172 205 200 174 159 155 155 150 144 133 124 121 124 119 109 50
146 153 140 145 211 167 180 262 278 248 246 234 268 292 292 263 223 198 145 88 111 149 161 168 178 183 198 179 147 159 173 170 166 196 217 178 166 160 158 150 154 157 148 144 155 165 157 162 187
Height
1487 1488 1489 1491 1496 1508 1512 1509 1505 1504 1505 1506 1505 1506 1508 1511 1514 1520 1517 1514 1514 1514 1514 1514 1514 1514 1513 1513 1513 1512 1512 1512 1512 1512 1512 1512 1512 1512 1512 1512 1512 1512 1512 1513 1513 1513 1513 1514 1514
1488 1489 1492 1493 1505 1518 1516 1508 1507 1505 1506 1506 1506 1508 1509 1512 1513 1515 1515 1515 1515 1515 1515 1515 1515 1515 1514 1514 1514 1513 1513 1513 1513 1513 1513 1513 1513 1513 1513 1513 1513 1513 1513 1513 1513 1514 1514 1514 1514
1490 1491 1493 1498 1510 1517 1514 1508 1507 1506 1507 1507 1508 1510 1512 1514 1515 1515 1516 1516 1516 1516 1516 1516 1516 1516 1516 1515 1515 1515 1514 1514 1514 1514 1514 1514 1514 1514 1514 1514 1514 1514 1514 1514 1514 1514 1514 1514 1514
1492 1494 1496 1505 1511 1510 1508 1507 1506 1507 1507 1508 1509 1512 1515 1517 1517 1517 1517 1517 1516 1516 1516 1516 1517 1517 1517 1517 1516 1516 1516 1516 1516 1516 1515 1515 1515 1515 1515 1515 1515 1515 1515 1515 1515 1515 1515 1515 1515
1493 1494 1504 1513 1512 1509 1507 1507 1507 1507 1509 1511 1511 1514 1516 1518 1518 1518 1518 1518 1517 1516 1516 1517 1518 1518 1518 1518 1518 1518 1517 1517 1517 1517 1517 1517 1516 1516 1516 1516 1516 1516 1516 1516 1515 1515 1515 1515 1515
1494 1498 1513 1519 1514 1510 1508 1508 1508 1509 1511 1512 1513 1515 1518 1519 1519 1519 1519 1519 1519 1518 1518 1518 1519 1519 1520 1519 1519 1519 1519 1519 1518 1518 1518 1518 1518 1517 1517 1517 1517 1517 1517 1516 1516 1516 1516 1515 1515
1497 1505 1514 1516 1516 1512 1510 1509 1510 1511 1512 1513 1514 1516 1519 1520 1521 1521 1521 1521 1521 1520 1520 1520 1521 1521 1521 1521 1521 1521 1521 1520 1520 1520 1520 1519 1519 1519 1519 1518 1518 1518 1518 1517 1517 1517 1516 1516 1515
1497 1505 1514 1516 1516 1513 1510 1510 1511 1511 1513 1514 1515 1516 1519 1521 1522 1522 1522 1523 1523 1522 1522 1523 1523 1523 1523 1523 1523 1523 1523 1522 1522 1521 1521 1521 1520 1520 1520 1520 1519 1519 1518 1518 1517 1517 1516 1516 1515
1499 1510 1517 1515 1514 1512 1510 1511 1512 1513 1514 1515 1516 1517 1518 1520 1522 1523 1523 1524 1524 1524 1524 1524 1525 1525 1525 1525 1524 1524 1524 1524 1524 1523 1523 1522 1522 1522 1521 1521 1520 1520 1519 1519 1518 1518 1517 1516 1515
1500 1513 1513 1509 1509 1510 1510 1511 1512 1514 1515 1516 1517 1518 1520 1521 1522 1523 1524 1524 1525 1525 1525 1526 1526 1526 1526 1526 1526 1526 1526 1526 1525 1525 1524 1524 1523 1523 1522 1522 1521 1521 1520 1520 1519 1518 1517 1517 1515
1502 1509 1508 1508 1508 1509 1510 1512 1513 1514 1516 1516 1516 1518 1520 1521 1523 1524 1525 1525 1526 1526 1527 1527 1527 1528 1528 1527 1527 1527 1527 1527 1527 1526 1526 1525 1525 1524 1524 1523 1523 1522 1521 1521 1520 1519 1518 1517 1516
1504 1506 1507 1508 1509 1510 1511 1512 1514 1515 1516 1516 1517 1518 1520 1522 1523 1524 1525 1526 1527 1527 1528 1528 1529 1529 1529 1529 1529 1529 1528 1528 1528 1527 1527 1527 1526 1525 1525 1524 1524 1523 1523 1522 1521 1520 1519 1519 1517
1506 1507 1508 1509 1510 1511 1512 1513 1514 1516 1516 1517 1518 1520 1521 1523 1524 1525 1526 1527 1528 1528 1529 1529 1529 1529 1530 1530 1530 1529 1529 1529 1529 1528 1528 1528 1527 1526 1526 1525 1525 1524 1523 1523 1522 1521 1520 1520 1519
1507 1508 1510 1511 1511 1512 1513 1515 1516 1517 1517 1518 1519 1521 1523 1524 1525 1526 1527 1527 1528 1529 1529 1530 1530 1530 1530 1530 1530 1530 1530 1530 1530 1529 1529 1529 1528 1527 1527 1526 1526 1525 1524 1524 1523 1523 1522 1521 1521
1507 1510 1512 1512 1512 1513 1514 1518 1518 1518 1518 1519 1520 1522 1523 1524 1525 1526 1527 1528 1529 1529 1530 1530 1530 1530 1531 1531 1531 1531 1531 1531 1530 1530 1530 1529 1529 1528 1527 1527 1526 1526 1525 1525 1524 1524 1523 1523 1522
1509 1515 1520 1514 1513 1514 1518 1524 1518 1518 1519 1520 1521 1522 1523 1525 1526 1527 1527 1528 1529 1529 1530 1530 1530 1530 1531 1531 1531 1531 1531 1531 1531 1531 1530 1530 1529 1529 1528 1527 1527 1527 1526 1526 1525 1525 1524 1524 1523
1517 1522 1522 1517 1513 1514 1518 1522 1518 1518 1519 1520 1521 1522 1523 1525 1526 1527 1528 1529 1529 1530 1530 1530 1530 1531 1531 1531 1531 1531 1532 1531 1531 1531 1531 1530 1529 1529 1528 1528 1527 1527 1527 1527 1526 1526 1525 1525 1525
1521 1522 1521 1520 1515 1516 1520 1521 1518 1518 1519 1520 1521 1522 1523 1524 1525 1527 1527 1529 1529 1530 1530 1530 1530 1531 1531 1531 1531 1531 1532 1531 1531 1531 1530 1530 1530 1529 1529 1528 1528 1527 1527 1527 1527 1527 1526 1526 1526
1514 1519 1521 1518 1513 1517 1520 1521 1519 1518 1519 1519 1520 1521 1522 1523 1525 1526 1527 1528 1529 1529 1530 1530 1530 1530 1531 1531 1531 1531 1531 1531 1531 1531 1530 1530 1530 1529 1529 1528 1528 1528 1527 1527 1527 1527 1527 1527 1527
1514 1519 1520 1516 1513 1516 1521 1522 1518 1518 1518 1518 1519 1519 1520 1522 1524 1525 1526 1527 1528 1529 1529 1530 1530 1530 1530 1531 1531 1531 1531 1531 1531 1530 1530 1530 1529 1529 1528 1528 1528 1527 1527 1527 1527 1527 1527 1527 1527
1515 1518 1518 1518 1516 1517 1521 1524 1520 1518 1517 1517 1517 1518 1519 1520 1522 1523 1525 1526 1527 1528 1529 1529 1530 1530 1530 1530 1531 1531 1531 1530 1530 1530 1530 1529 1529 1528 1528 1527 1527 1527 1527 1527 1527 1526 1527 1527 1527
1518 1511 1513 1515 1522 1529 1525 1537 1525 1520 1518 1516 1516 1516 1517 1519 1520 1521 1523 1524 1525 1527 1528 1529 1529 1530 1530 1530 1530 1530 1530 1530 1530 1529 1529 1529 1528 1528 1527 1527 1527 1527 1526 1526 1526 1526 1526 1526 1526
1512 1509 1512 1516 1522 1530 1529 1535 1531 1522 1520 1517 1515 1514 1515 1517 1518 1520 1521 1523 1524 1526 1527 1528 1528 1529 1529 1529 1529 1529 1529 1529 1529 1529 1528 1528 1528 1527 1527 1527 1526 1526 1526 1526 1526 1526 1526 1526 1526
1508 1513 1517 1523 1529 1538 1533 1537 1535 1526 1520 1516 1514 1514 1514 1515 1517 1519 1520 1522 1523 1525 1526 1526 1527 1528 1528 1528 1528 1528 1528 1528 1528 1527 1527 1527 1527 1527 1526 1526 1526 1526 1526 1525 1525 1525 1525 1525 1525
1512 1523 1536 1538 1544 1542 1531 1534 1532 1520 1517 1515 1514 1514 1514 1515 1516 1517 1519 1520 1521 1523 1524 1524 1525 1526 1527 1527 1527 1527 1527 1526 1526 1526 1526 1526 1526 1526 1526 1525 1525 1525 1525 1525 1525 1525 1524 1524 1524
1515 1521 1537 1544 1546 1542 1533 1534 1527 1518 1516 1514 1514 1514 1513 1514 1515 1516 1517 1518 1520 1521 1522 1523 1523 1524 1525 1525 1526 1526 1526 1525 1525 1525 1525 1525 1524 1525 1524 1524 1524 1524 1524 1524 1524 1524 1524 1523 1523
1516 1523 1523 1534 1537 1542 1538 1531 1522 1517 1515 1514 1513 1513 1513 1513 1514 1515 1516 1517 1518 1519 1520 1521 1522 1522 1523 1524 1524 1524 1524 1524 1524 1524 1524 1523 1523 1523 1523 1523 1523 1523 1523 1523 1523 1523 1522 1522 1522
1514 1520 1529 1535 1542 1545 1539 1534 1530 1521 1518 1516 1515 1514 1513 1513 1514 1514 1515 1515 1517 1518 1519 1520 1520 1521 1521 1522 1522 1522 1522 1522 1522 1522 1522 1522 1522 1522 1521 1521 1521 1521 1521 1522 1522 1522 1522 1521 1521
1519 1523 1528 1536 1538 1544 1545 1538 1520 1518 1516 1515 1514 1514 1513 1513 1513 1514 1514 1515 1515 1516 1517 1518 1518 1519 1519 1519 1520 1520 1520 1520 1520 1520 1520 1520 1520 1520 1520 1520 1520 1520 1520 1520 1520 1520 1520 1520 1520
1514 1519 1527 1534 1537 1541 1543 1538 1516 1515 1514 1514 1513 1513 1513 1512 1513 1513 1513 1514 1514 1514 1515 1516 1516 1516 1517 1517 1517 1517 1518 1518 1517 1518 1518 1518 1518 1518 1519 1519 1519 1519 1519 1519 1519 1519 1519 1518 1518